Time,TemperatureF,DewpointF,PressureIn,WindDirection,WindDirectionDegrees,WindSpeedMPH,WindSpeedGustMPH,Humidity,HourlyPrecipIn,Conditions,Clouds,dailyrainin,SoftwareType,DateUTC
2013-12-06 00:13:00,54.0,-99.9,-100.00,North,-999,-999.0,-999.0,-999,0.00,,,0.03,,2013-12-06 05:13:00,
2013-12-06 00:22:00,54.0,-99.9,-100.00,North,-999,-999.0,-999.0,-999,0.00,,,0.03,,2013-12-06 05:22:00,
2013-12-06 00:30:00,54.0,-99.9,-100.00,North,-999,-999.0,-999.0,-999,0.00,,,0.03,,2013-12-06 05:30:00,
2013-12-06 01:13:00,54.0,-99.9,-100.00,North,-999,-999.0,-999.0,-999,0.00,,,0.03,,2013-12-06 06:13:00,
2013-12-06 01:22:00,54.0,-99.9,-100.00,North,-999,-999.0,-999.0,-999,0.00,,,0.03,,2013-12-06 06:22:00,
2013-12-06 02:22:00,54.0,-99.9,-100.00,North,-999,-999.0,-999.0,-999,-99.99,,,0.03,,2013-12-06 07:22:00,
2013-12-06 02:30:00,53.0,-99.9,-100.00,North,-999,-999.0,-999.0,-999,0.00,,,0.03,,2013-12-06 07:30:00,
2013-12-06 02:32:00,54.0,-99.9,-100.00,North,-999,-999.0,-999.0,-999,-99.99,,,0.03,,2013-12-06 07:32:00,
2013-12-06 02:42:00,54.0,-99.9,-100.00,North,-999,-999.0,-999.0,-999,-99.99,,,0.03,,2013-12-06 07:42:00,
2013-12-06 03:12:00,53.0,-99.9,-100.00,North,-999,-999.0,-999.0,-999,0.00,,,0.03,,2013-12-06 08:12:00,
2013-12-06 03:22:00,53.0,-99.9,-100.00,North,-999,-999.0,-999.0,-999,0.00,,,0.03,,2013-12-06 08:22:00,
2013-12-06 03:30:00,53.0,-99.9,-100.00,North,-999,-999.0,-999.0,-999,0.00,,,0.03,,2013-12-06 08:30:00,
2013-12-06 04:12:00,53.0,-99.9,-100.00,North,-999,-999.0,-999.0,-999,0.00,,,0.03,,2013-12-06 09:12:00,
2013-12-06 04:22:00,53.0,-99.9,-100.00,North,-999,-999.0,-999.0,-999,0.00,,,0.03,,2013-12-06 09:22:00,
2013-12-06 04:30:00,53.0,-99.9,-100.00,North,-999,-999.0,-999.0,-999,0.00,,,0.03,,2013-12-06 09:30:00,
2013-12-06 05:13:00,53.0,-99.9,-100.00,North,-999,-999.0,-999.0,-999,0.00,,,0.03,,2013-12-06 10:13:00,
2013-12-06 05:23:00,53.0,-99.9,-100.00,North,-999,-999.0,-999.0,-999,0.00,,,0.03,,2013-12-06 10:23:00,
2013-12-06 05:30:00,54.0,-99.9,-100.00,North,-999,-999.0,-999.0,-999,0.00,,,0.03,,2013-12-06 10:30:00,
2013-12-06 06:12:00,54.0,-99.9,-100.00,North,-999,-999.0,-999.0,-999,0.00,,,0.03,,2013-12-06 11:12:00,
2013-12-06 06:22:00,54.0,-99.9,-100.00,North,-999,-999.0,-999.0,-999,0.00,,,0.03,,2013-12-06 11:22:00,
2013-12-06 06:30:00,54.0,-99.9,-100.00,North,-999,-999.0,-999.0,-999,0.00,,,0.03,,2013-12-06 11:30:00,
2013-12-06 07:12:00,54.0,-99.9,-100.00,North,-999,-999.0,-999.0,-999,0.00,,,0.03,,2013-12-06 12:12:00,
2013-12-06 07:22:00,54.0,-99.9,-100.00,North,-999,-999.0,-999.0,-999,0.00,,,0.03,,2013-12-06 12:22:00,
2013-12-06 08:22:00,51.0,-99.9,-100.00,North,-999,-999.0,-999.0,-999,-99.99,,,0.03,,2013-12-06 13:22:00,
2013-12-06 08:30:00,50.0,-99.9,-100.00,North,-999,-999.0,-999.0,-999,0.00,,,0.02,,2013-12-06 13:30:00,
2013-12-06 08:32:00,51.0,-99.9,-100.00,North,-999,-999.0,-999.0,-999,-99.99,,,0.03,,2013-12-06 13:32:00,
2013-12-06 08:42:00,51.0,-99.9,-100.00,North,-999,-999.0,-999.0,-999,-99.99,,,0.03,,2013-12-06 13:42:00,
2013-12-06 09:12:00,50.0,-99.9,-100.00,North,-999,-999.0,-999.0,-999,0.00,,,0.02,,2013-12-06 14:12:00,
2013-12-06 09:22:00,50.0,-99.9,-100.00,North,-999,-999.0,-999.0,-999,0.00,,,0.02,,2013-12-06 14:22:00,
2013-12-06 09:30:00,49.0,-99.9,-100.00,North,-999,-999.0,-999.0,-999,0.00,,,0.02,,2013-12-06 14:30:00,
2013-12-06 10:12:00,49.0,-99.9,-100.00,North,-999,-999.0,-999.0,-999,0.00,,,0.02,,2013-12-06 15:12:00,
2013-12-06 10:22:00,49.0,-99.9,-100.00,North,-999,-999.0,-999.0,-999,0.00,,,0.02,,2013-12-06 15:22:00,
2013-12-06 10:30:00,47.0,-99.9,-100.00,North,-999,-999.0,-999.0,-999,0.00,,,0.02,,2013-12-06 15:30:00,
2013-12-06 11:13:00,47.0,-99.9,-100.00,North,-999,-999.0,-999.0,-999,0.00,,,0.02,,2013-12-06 16:13:00,
2013-12-06 11:24:00,47.0,-99.9,-100.00,North,-999,-999.0,-999.0,-999,0.00,,,0.02,,2013-12-06 16:24:00,
2013-12-06 11:30:00,47.0,-99.9,-100.00,North,-999,-999.0,-999.0,-999,0.01,,,0.02,,2013-12-06 16:30:00,
2013-12-06 12:12:00,47.0,-99.9,-100.00,North,-999,-999.0,-999.0,-999,0.01,,,0.02,,2013-12-06 17:12:00,
2013-12-06 12:22:00,47.0,-99.9,-100.00,North,-999,-999.0,-999.0,-999,0.01,,,0.02,,2013-12-06 17:22:00,
2013-12-06 12:30:00,47.0,-99.9,-100.00,North,-999,-999.0,-999.0,-999,0.00,,,0.02,,2013-12-06 17:30:00,
2013-12-06 13:13:00,47.0,-99.9,-100.00,North,-999,-999.0,-999.0,-999,0.00,,,0.02,,2013-12-06 18:13:00,
2013-12-06 13:23:00,47.0,-99.9,-100.00,North,-999,-999.0,-999.0,-999,0.00,,,0.02,,2013-12-06 18:23:00,
2013-12-06 14:22:00,45.0,-99.9,-100.00,North,-999,-999.0,-999.0,-999,-99.99,,,0.04,,2013-12-06 19:22:00,
2013-12-06 14:30:00,45.0,-99.9,-100.00,North,-999,-999.0,-999.0,-999,0.00,,,0.04,,2013-12-06 19:30:00,
2013-12-06 14:32:00,45.0,-99.9,-100.00,North,-999,-999.0,-999.0,-999,-99.99,,,0.04,,2013-12-06 19:32:00,
2013-12-06 14:42:00,45.0,-99.9,-100.00,North,-999,-999.0,-999.0,-999,-99.99,,,0.04,,2013-12-06 19:42:00,
2013-12-06 15:11:00,45.0,-99.9,-100.00,North,-999,-999.0,-999.0,-999,0.00,,,0.04,,2013-12-06 20:11:00,
2013-12-06 15:22:00,45.0,-99.9,-100.00,North,-999,-999.0,-999.0,-999,0.00,,,0.04,,2013-12-06 20:22:00,
2013-12-06 15:30:00,45.0,-99.9,-100.00,North,-999,-999.0,-999.0,-999,0.00,,,0.04,,2013-12-06 20:30:00,
2013-12-06 16:11:00,45.0,-99.9,-100.00,North,-999,-999.0,-999.0,-999,0.00,,,0.04,,2013-12-06 21:11:00,
2013-12-06 16:22:00,45.0,-99.9,-100.00,North,-999,-999.0,-999.0,-999,0.00,,,0.04,,2013-12-06 21:22:00,
2013-12-06 16:30:00,44.0,-99.9,-100.00,North,-999,-999.0,-999.0,-999,0.01,,,0.05,,2013-12-06 21:30:00,
2013-12-06 17:13:00,44.0,-99.9,-100.00,North,-999,-999.0,-999.0,-999,0.01,,,0.05,,2013-12-06 22:13:00,
2013-12-06 17:23:00,44.0,-99.9,-100.00,North,-999,-999.0,-999.0,-999,0.01,,,0.05,,2013-12-06 22:23:00,
2013-12-06 17:30:00,43.0,-99.9,-100.00,North,-999,-999.0,-999.0,-999,0.00,,,0.05,,2013-12-06 22:30:00,
2013-12-06 18:12:00,43.0,-99.9,-100.00,North,-999,-999.0,-999.0,-999,0.00,,,0.05,,2013-12-06 23:12:00,
2013-12-06 18:22:00,43.0,-99.9,-100.00,North,-999,-999.0,-999.0,-999,0.00,,,0.05,,2013-12-06 23:22:00,
2013-12-06 18:30:00,41.0,-99.9,-100.00,North,-999,-999.0,-999.0,-999,0.03,,,0.08,,2013-12-06 23:30:00,
2013-12-06 19:12:00,41.0,-99.9,-100.00,North,-999,-999.0,-999.0,-999,0.03,,,0.08,,2013-12-07 00:12:00,
2013-12-06 19:22:00,41.0,-99.9,-100.00,North,-999,-999.0,-999.0,-999,0.03,,,0.08,,2013-12-07 00:22:00,
2013-12-06 19:30:00,41.0,-99.9,-100.00,North,-999,-999.0,-999.0,-999,0.01,,,0.08,,2013-12-07 00:30:00,
2013-12-06 20:11:00,41.0,-99.9,-100.00,North,-999,-999.0,-999.0,-999,0.01,,,0.08,,2013-12-07 01:11:00,
2013-12-06 20:22:00,41.0,-99.9,-100.00,North,-999,-999.0,-999.0,-999,0.01,,,0.08,,2013-12-07 01:22:00,
2013-12-06 20:30:00,40.0,-99.9,-100.00,North,-999,-999.0,-999.0,-999,0.01,,,0.09,,2013-12-07 01:30:00,
2013-12-06 21:11:00,40.0,-99.9,-100.00,North,-999,-999.0,-999.0,-999,0.01,,,0.09,,2013-12-07 02:11:00,
2013-12-06 21:22:00,40.0,-99.9,-100.00,North,-999,-999.0,-999.0,-999,0.01,,,0.09,,2013-12-07 02:22:00,
2013-12-06 21:30:00,38.0,-99.9,-100.00,North,-999,-999.0,-999.0,-999,0.11,,,0.20,,2013-12-07 02:30:00,
2013-12-06 22:11:00,38.0,-99.9,-100.00,North,-999,-999.0,-999.0,-999,0.11,,,0.20,,2013-12-07 03:11:00,
2013-12-06 22:22:00,38.0,-99.9,-100.00,North,-999,-999.0,-999.0,-999,0.11,,,0.20,,2013-12-07 03:22:00,
2013-12-06 22:30:00,38.0,-99.9,-100.00,North,-999,-999.0,-999.0,-999,0.08,,,0.28,,2013-12-07 03:30:00,
2013-12-06 23:13:00,38.0,-99.9,-100.00,North,-999,-999.0,-999.0,-999,0.08,,,0.28,,2013-12-07 04:13:00,
2013-12-06 23:23:00,38.0,-99.9,-100.00,North,-999,-999.0,-999.0,-999,0.08,,,0.28,,2013-12-07 04:23:00,
2013-12-06 23:30:00,37.0,-99.9,-100.00,North,-999,-999.0,-999.0,-999,0.10,,,0.38,,2013-12-07 04:30:00,